CZ-6A DEB

Satellite information

Favourite Embed

Satellite Type and Status

DEBRISIN ORBIT

Key statistics

Satellite CZ-6A DEB at a glance.

Uptime

969

Days in orbit

Revolutions

≈ 14.2

Per day

Orbit

SSO

Sun Synchronous Orbit

Inclination

98.8

Latest

Satellite identification and parameters

Extended collection of information and parameters for CZ-6A DEB.

Object identification

Identified? True

Debris? True

Object name: CZ-6A DEB

International designator: 2022-151RF

Object number (NORAD): 54918

Object ID (CCSDS): 54918

Country: PEOPLES REPUBLIC OF CHINA (PRC)

Current information (Y/N): Y

RCS size: SMALL

Orbital parameters

Period: 101.451 minutes

Inclination: 98.8253 deg

SMA: 7205.526 km

Apoapsis: 848.49 km

Periapsis: 806.291 km

RAAN: 198.9804 deg

Eccentricy: 0.0029282

Argument of periapsis: 211.4583 deg

Mean anomaly: 148.4842 deg

Mean motion: 14.19398232 rev/day

Mean motion (dot): 0.00001554 rev/day2

B* drag term: 0.00075681 1/REarth

Two-line elements (TLE)

Creation date: July 6, 2025, 6:05 p.m.

Reference frame: TEME

Reference center: EARTH

Epoch: July 6, 2025, 1:38 p.m. UTC

TLE line 0: 0 CZ-6A DEB

TLE line 1: 1 54918U 22151RF 25187.56861227 .00001554 00000-0 75681-3 0 9993

TLE line 2: 2 54918 98.8253 198.9804 0029282 211.4583 148.4842 14.19398232133257

Live tracking on map

Real-time ground track for satellite CZ-6A DEB.

In-orbit conjunctions

A list of the most updated potential collisions computed for object CZ-6A DEB.

Target Orbit TCA Probability of collision Miss distance Type
METEOR 1-17 DEB LEO 2025-05-12 04:16:35 0.0002175975 75.0 (m) DEBRIS
PEGASUS DEB LEO 2024-12-12 04:36:10 0.0001778168 87.0 (m) DEBRIS
METEOR 1-17 DEB LEO 2024-11-14 00:26:30 0.002690285 147.0 (m) DEBRIS

Associated space launch

Chinese satellite reported for atmospheric/ocean/environmental/spatial parameter research purposes, details TBD.

CZ-6A DEB was lifted into orbit during the mission ‘Long March 6A | Yunhai 3’, on board a Long March 6A space rocket.

The launch took place on Nov. 11, 2022, 10:52 p.m. from Launch Complex 9A.

For more information about the launch, click the button.

Launch to space Long March 6A | Yunhai 3
Long March 6A | Yunhai 3

Agency: N/A

Status: Launch Successful

Launch date: Nov. 11, 2022, 10:52 p.m. UTC

Rocket: Long March 6A

Launch pad: Launch Complex 9A

Location: Taiyuan Satellite Launch Center, People's Republic of China

...

Latest news about this satellite

There are no fresh news available about this satellite. Check back as we update our databases every day.


Newsletter sign-up

Weekly statistics, charts and insights to help you stay on top of the space industry.